QPF
0.02 0.02 0.01 0.01 0.01 0.02 0.02 0.02 0.04 0.06 0.04 0.03 0.04 0.03 0.03 0.02 0.02 0.02 0.02 0.02 0.02 0.02 0.02 0.02 0.01 0.01 0.01 0.01 0.00 0.00 0.01 0.01 0.01 0.01 0.01 0.01 0.00 0.01 0.01 0.01 0.01 0.01 0.00
0.02 0.02 0.02 0.01 0.01 0.01 0.01 0.01 0.02 0.03 0.03 0.03 0.04 0.05 0.04 0.03 0.02 0.02 0.02 0.03 0.03 0.02 0.01 0.01 0.01 0.01 0.01 0.01 0.01 0.01 0.01 0.01 0.01 0.02 0.03 0.02 0.01 0.01 0.01 0.01 0.01 0.02 0.01
0.02 0.01 0.01 0.01 0.02 0.02 0.01 0.02 0.03 0.02 0.02 0.01 0.02 0.03 0.05 0.06 0.05 0.05 0.04 0.03 0.02 0.02 0.01 0.01 0.01 0.01 0.01 0.01 0.01 0.01 0.02 0.01 0.01 0.02 0.03 0.02 0.02 0.02 0.02 0.02 0.02 0.01 0.01
0.01 0.02 0.01 0.01 0.01 0.01 0.01 0.02 0.02 0.03 0.02 0.01 0.01 0.01 0.04 0.06 0.06 0.06 0.05 0.04 0.02 0.02 0.02 0.01 0.01 0.01 0.01 0.01 0.01 0.01 0.01 0.02 0.02 0.02 0.02 0.01 0.02 0.02 0.02 0.02 0.02 0.02 0.01
0.00 0.01 0.01 0.01 0.01 0.01 0.01 0.01 0.02 0.02 0.01 0.01 0.01 0.02 0.03 0.05 0.05 0.03 0.02 0.02 0.02 0.02 0.02 0.02 0.02 0.01 0.01 0.01 0.01 0.01 0.01 0.01 0.02 0.02 0.01 0.01 0.01 0.02 0.02 0.02 0.02 0.02 0.01
0.00 0.00 0.01 0.01 0.01 0.01 0.01 0.01 0.01 0.01 0.01 0.01 0.02 0.03 0.04 0.04 0.02 0.01 0.01 0.00 0.00 0.00 0.00 0.00 0.01 0.01 0.01 0.01 0.01 0.01 0.01 0.01 0.02 0.01 0.01 0.02 0.01 0.02 0.01 0.02 0.02 0.01 0.01
0.00 0.00 0.01 0.01 0.00 0.00 0.00 0.00 0.01 0.01 0.02 0.02 0.03 0.03 0.01 0.01 0.00 0.00 0.01 0.01 0.01 0.00 0.00 0.00 0.00 0.00 0.00 0.00 0.00 0.00 0.01 0.01 0.01 0.01 0.01 0.02 0.02 0.02 0.02 0.02 0.02 0.01 0.01
0.00 0.00 0.00 0.00 0.00 0.00 0.00 0.00 0.00 0.01 0.02 0.02 0.02 0.01 0.00 0.00 0.00 0.00 0.00 0.01 0.01 0.00 0.00 0.00 0.00 0.00 0.00 0.00 0.00 0.00 0.00 0.00 0.01 0.01 0.01 0.01 0.02 0.02 0.02 0.03 0.03 0.01 0.01
0.00 0.00 0.00 0.00 0.00 0.00 0.00 0.00 0.00 0.00 0.01 0.01 0.01 0.01 0.01 0.01 0.00 0.00 0.01 0.00 0.00 0.00 0.00 0.00 0.00 0.00 0.00 0.00 0.00 0.00 0.00 0.00 0.00 0.00 0.00 0.01 0.01 0.01 0.02 0.02 0.02 0.01 0.01
0.00 0.00 0.00 0.00 0.00 0.00 0.00 0.00 0.00 0.00 0.01 0.01 0.01 0.01 0.01 0.01 0.01 0.01 0.00 0.00 0.00 0.00 0.00 0.00 0.00 0.00 0.00 0.00 0.00 0.00 0.00 0.00 0.00 0.00 0.01 0.01 0.02 0.01 0.01 0.01 0.01 0.01 0.01
0.00 0.00 0.00 0.00 0.00 0.00 0.00 0.00 0.00 0.00 0.01 0.01 0.01 0.01 0.01 0.01 0.01 0.01 0.00 0.00 0.00 0.00 0.00 0.01 0.00 0.00 0.01 0.01 0.01 0.00 0.00 0.00 0.00 0.00 0.01 0.01 0.02 0.02 0.01 0.01 0.01 0.00 0.01
0.00 0.00 0.00 0.00 0.00 0.00 0.00 0.00 0.00 0.00 0.00 0.01 0.01 0.01 0.01 0.01 0.01 0.01 0.00 0.00 0.00 0.01 0.01 0.01 0.00 0.00 0.00 0.00 0.01 0.01 0.00 0.01 0.01 0.01 0.01 0.01 0.02 0.02 0.01 0.00 0.00 0.00 0.00
0.00 0.00 0.00 0.00 0.00 0.00 0.00 0.01 0.01 0.01 0.01 0.01 0.01 0.01 0.01 0.01 0.01 0.01 0.01 0.00 0.00 0.01 0.01 0.00 0.00 0.00 0.00 0.00 0.01 0.01 0.01 0.01 0.01 0.01 0.01 0.01 0.01 0.01 0.01 0.01 0.01 0.01 0.01
0.00 0.00 0.00 0.00 0.00 0.00 0.00 0.00 0.01 0.01 0.01 0.02 0.02 0.02 0.02 0.01 0.02 0.01 0.01 0.01 0.01 0.01 0.01 0.01 0.01 0.01 0.01 0.01 0.01 0.01 0.01 0.01 0.01 0.01 0.01 0.01 0.01 0.01 0.01 0.01 0.01 0.01 0.02
0.00 0.01 0.00 0.00 0.00 0.00 0.00 0.00 0.01 0.01 0.01 0.01 0.02 0.02 0.01 0.01 0.02 0.02 0.01 0.01 0.01 0.02 0.03 0.03 0.03 0.02 0.02 0.02 0.02 0.02 0.02 0.02 0.01 0.01 0.01 0.01 0.01 0.01 0.01 0.01 0.01 0.01 0.02
0.00 0.00 0.00 0.00 0.00 0.00 0.00 0.00 0.00 0.00 0.01 0.01 0.01 0.02 0.02 0.02 0.02 0.01 0.01 0.01 0.02 0.02 0.02 0.02 0.02 0.02 0.02 0.03 0.03 0.03 0.03 0.02 0.01 0.01 0.01 0.01 0.01 0.01 0.01 0.01 0.01 0.01 0.02
0.00 0.00 0.00 0.00 0.00 0.00 0.00 0.00 0.00 0.00 0.01 0.01 0.01 0.01 0.01 0.01 0.01 0.01 0.01 0.01 0.01 0.01 0.01 0.02 0.02 0.02 0.03 0.04 0.04 0.05 0.04 0.03 0.02 0.01 0.01 0.01 0.01 0.01 0.01 0.01 0.01 0.01 0.02
0.00 0.00 0.00 0.00 0.00 0.00 0.00 0.00 0.00 0.00 0.00 0.00 0.01 0.01 0.01 0.00 0.00 0.00 0.00 0.00 0.00 0.01 0.01 0.01 0.02 0.03 0.04 0.05 0.05 0.06 0.05 0.04 0.02 0.01 0.01 0.01 0.01 0.01 0.01 0.01 0.01 0.01 0.01
0.00 0.00 0.00 0.00 0.00 0.00 0.00 0.00 0.00 0.00 0.00 0.01 0.01 0.00 0.01 0.01 0.01 0.00 0.00 0.00 0.01 0.01 0.01 0.01 0.01 0.01 0.03 0.04 0.04 0.04 0.04 0.05 0.04 0.02 0.01 0.01 0.01 0.01 0.01 0.01 0.01 0.01 0.01
0.00 0.00 0.00 0.00 0.00 0.00 0.00 0.00 0.00 0.00 0.00 0.01 0.01 0.01 0.00 0.01 0.01 0.00 0.01 0.01 0.01 0.01 0.01 0.01 0.01 0.01 0.02 0.03 0.03 0.03 0.04 0.04 0.04 0.03 0.02 0.02 0.01 0.01 0.02 0.01 0.01 0.01 0.01
0.00 0.00 0.00 0.00 0.00 0.00 0.00 0.00 0.00 0.00 0.01 0.00 0.01 0.01 0.01 0.01 0.01 0.01 0.01 0.01 0.01 0.01 0.01 0.01 0.01 0.01 0.02 0.02 0.03 0.04 0.04 0.04 0.04 0.03 0.02 0.02 0.02 0.02 0.02 0.02 0.01 0.01 0.02
0.00 0.00 0.00 0.00 0.00 0.00 0.00 0.00 0.00 0.01 0.01 0.00 0.00 0.00 0.01 0.01 0.01 0.01 0.01 0.01 0.02 0.02 0.01 0.01 0.01 0.01 0.01 0.02 0.02 0.02 0.03 0.03 0.03 0.02 0.02 0.03 0.05 0.05 0.04 0.03 0.02 0.02 0.03
0.00 0.00 0.00 0.00 0.00 0.00 0.00 0.00 0.00 0.00 0.00 0.00 0.00 0.00 0.00 0.00 0.01 0.02 0.01 0.01 0.01 0.01 0.01 0.01 0.01 0.01 0.01 0.01 0.01 0.01 0.02 0.02 0.02 0.02 0.02 0.04 0.06 0.07 0.06 0.04 0.03 0.03 0.02
0.00 0.00 0.00 0.00 0.00 0.00 0.00 0.00 0.00 0.00 0.00 0.01 0.01 0.01 0.00 0.00 0.01 0.01 0.02 0.02 0.01 0.01 0.01 0.01 0.01 0.01 0.01 0.01 0.01 0.01 0.01 0.01 0.01 0.01 0.02 0.03 0.03 0.03 0.03 0.04 0.04 0.03 0.03
0.00 0.00 0.00 0.00 0.00 0.00 0.00 0.00 0.00 0.01 0.01 0.01 0.01 0.01 0.01 0.00 0.01 0.01 0.01 0.01 0.01 0.01 0.01 0.01 0.01 0.01 0.01 0.01 0.01 0.01 0.01 0.01 0.01 0.01 0.01 0.02 0.02 0.03 0.03 0.04 0.04 0.04 0.04
0.01 0.00 0.00 0.00 0.00 0.00 0.01 0.01 0.00 0.01 0.01 0.01 0.01 0.01 0.01 0.01 0.01 0.01 0.02 0.02 0.01 0.01 0.01 0.01 0.01 0.02 0.02 0.02 0.01 0.01 0.01 0.01 0.01 0.01 0.01 0.02 0.02 0.02 0.03 0.05 0.06 0.04 0.03
MSLP
1023.57 1023.64 1023.69 1023.71 1023.69 1023.61 1023.48 1023.29 1023.05 1022.80 1022.55 1022.33 1022.16 1022.02 1021.90 1021.79 1021.65 1021.45 1021.17 1020.82 1020.41 1019.94 1019.47 1019.01 1018.58 1018.19 1017.82 1017.45 1017.04 1016.56 1015.98 1015.30 1014.52 1013.69 1012.83 1011.99 1011.21 1010.54 1009.99 1009.57 1009.29 1009.12 1009.05
1023.29 1023.45 1023.57 1023.65 1023.65 1023.58 1023.45 1023.26 1023.05 1022.84 1022.65 1022.49 1022.39 1022.31 1022.24 1022.15 1022.00 1021.78 1021.49 1021.12 1020.69 1020.24 1019.79 1019.37 1018.99 1018.64 1018.31 1017.97 1017.58 1017.11 1016.54 1015.87 1015.10 1014.26 1013.40 1012.53 1011.71 1010.96 1010.30 1009.76 1009.34 1009.03 1008.85
1022.83 1023.08 1023.29 1023.42 1023.47 1023.43 1023.33 1023.17 1023.01 1022.85 1022.73 1022.65 1022.60 1022.57 1022.53 1022.44 1022.28 1022.03 1021.70 1021.30 1020.86 1020.41 1019.99 1019.60 1019.26 1018.95 1018.65 1018.33 1017.97 1017.52 1016.98 1016.34 1015.62 1014.83 1014.01 1013.19 1012.37 1011.60 1010.89 1010.25 1009.70 1009.24 1008.89
1022.22 1022.56 1022.86 1023.08 1023.19 1023.22 1023.17 1023.07 1022.97 1022.88 1022.83 1022.82 1022.83 1022.83 1022.80 1022.69 1022.50 1022.21 1021.84 1021.41 1020.96 1020.52 1020.11 1019.74 1019.43 1019.14 1018.86 1018.55 1018.20 1017.77 1017.26 1016.68 1016.03 1015.34 1014.62 1013.88 1013.14 1012.40 1011.67 1010.97 1010.30 1009.69 1009.17
1021.52 1021.97 1022.37 1022.68 1022.89 1022.99 1023.02 1023.00 1022.97 1022.96 1022.97 1023.02 1023.06 1023.08 1023.04 1022.91 1022.68 1022.35 1021.95 1021.49 1021.03 1020.59 1020.19 1019.84 1019.54 1019.26 1018.97 1018.66 1018.29 1017.86 1017.38 1016.85 1016.29 1015.71 1015.11 1014.50 1013.87 1013.21 1012.51 1011.78 1011.02 1010.29 1009.60
1020.82 1021.37 1021.88 1022.30 1022.61 1022.81 1022.92 1022.98 1023.02 1023.07 1023.14 1023.22 1023.29 1023.31 1023.25 1023.09 1022.82 1022.46 1022.03 1021.56 1021.10 1020.66 1020.27 1019.93 1019.63 1019.33 1019.02 1018.67 1018.27 1017.83 1017.35 1016.86 1016.37 1015.89 1015.43 1014.95 1014.45 1013.89 1013.24 1012.52 1011.72 1010.88 1010.05
1020.18 1020.84 1021.45 1021.98 1022.39 1022.68 1022.87 1023.01 1023.11 1023.21 1023.31 1023.41 1023.47 1023.48 1023.40 1023.22 1022.93 1022.54 1022.09 1021.62 1021.17 1020.74 1020.36 1020.02 1019.70 1019.38 1019.02 1018.62 1018.17 1017.68 1017.18 1016.70 1016.25 1015.85 1015.49 1015.14 1014.75 1014.30 1013.73 1013.04 1012.23 1011.33 1010.40
1019.66 1020.41 1021.12 1021.74 1022.24 1022.61 1022.88 1023.06 1023.21 1023.33 1023.45 1023.54 1023.60 1023.59 1023.49 1023.28 1022.97 1022.58 1022.14 1021.68 1021.24 1020.83 1020.46 1020.12 1019.77 1019.41 1019.00 1018.52 1018.00 1017.45 1016.90 1016.40 1015.96 1015.59 1015.29 1015.02 1014.73 1014.37 1013.89 1013.25 1012.46 1011.55 1010.57
1019.28 1020.11 1020.90 1021.60 1022.17 1022.60 1022.91 1023.13 1023.29 1023.42 1023.53 1023.61 1023.65 1023.62 1023.50 1023.28 1022.97 1022.58 1022.16 1021.72 1021.29 1020.90 1020.54 1020.20 1019.83 1019.42 1018.95 1018.40 1017.80 1017.17 1016.56 1016.00 1015.53 1015.15 1014.87 1014.64 1014.40 1014.11 1013.69 1013.12 1012.37 1011.49 1010.52
1019.04 1019.92 1020.77 1021.52 1022.14 1022.61 1022.94 1023.17 1023.33 1023.45 1023.55 1023.61 1023.63 1023.58 1023.45 1023.23 1022.92 1022.55 1022.14 1021.73 1021.33 1020.95 1020.59 1020.24 1019.85 1019.40 1018.87 1018.26 1017.59 1016.88 1016.19 1015.56 1015.03 1014.61 1014.29 1014.05 1013.83 1013.57 1013.20 1012.68 1012.01 1011.19 1010.26
1018.90 1019.82 1020.71 1021.49 1022.12 1022.61 1022.95 1023.18 1023.33 1023.44 1023.51 1023.55 1023.55 1023.49 1023.36 1023.13 1022.84 1022.48 1022.09 1021.69 1021.31 1020.94 1020.58 1020.21 1019.80 1019.32 1018.75 1018.10 1017.37 1016.60 1015.84 1015.14 1014.54 1014.05 1013.67 1013.38 1013.13 1012.85 1012.50 1012.04 1011.43 1010.70 1009.86
1018.82 1019.76 1020.66 1021.45 1022.09 1022.58 1022.92 1023.15 1023.29 1023.39 1023.44 1023.47 1023.45 1023.39 1023.25 1023.03 1022.74 1022.39 1022.01 1021.62 1021.23 1020.85 1020.48 1020.09 1019.66 1019.17 1018.58 1017.90 1017.15 1016.35 1015.55 1014.79 1014.11 1013.54 1013.08 1012.71 1012.40 1012.09 1011.74 1011.30 1010.76 1010.12 1009.39
1018.76 1019.70 1020.59 1021.38 1022.02 1022.50 1022.85 1023.07 1023.21 1023.30 1023.35 1023.37 1023.35 1023.28 1023.14 1022.92 1022.63 1022.28 1021.89 1021.48 1021.08 1020.68 1020.29 1019.88 1019.43 1018.93 1018.34 1017.67 1016.92 1016.12 1015.30 1014.50 1013.77 1013.13 1012.58 1012.12 1011.72 1011.35 1010.96 1010.54 1010.05 1009.50 1008.88
1018.68 1019.61 1020.49 1021.26 1021.89 1022.37 1022.72 1022.95 1023.10 1023.20 1023.25 1023.27 1023.25 1023.17 1023.02 1022.80 1022.49 1022.13 1021.72 1021.28 1020.85 1020.41 1019.99 1019.56 1019.10 1018.59 1018.02 1017.37 1016.65 1015.87 1015.07 1014.26 1013.49 1012.78 1012.15 1011.59 1011.09 1010.64 1010.21 1009.77 1009.32 1008.83 1008.32
1018.58 1019.48 1020.34 1021.09 1021.71 1022.19 1022.54 1022.79 1022.95 1023.06 1023.13 1023.16 1023.13 1023.05 1022.89 1022.65 1022.32 1021.93 1021.48 1021.01 1020.53 1020.06 1019.60 1019.14 1018.67 1018.17 1017.62 1017.01 1016.33 1015.59 1014.81 1014.01 1013.21 1012.45 1011.74 1011.08 1010.48 1009.94 1009.44 1008.97 1008.51 1008.08 1007.65
1018.45 1019.33 1020.15 1020.87 1021.47 1021.95 1022.31 1022.58 1022.76 1022.89 1022.97 1023.00 1022.98 1022.88 1022.70 1022.44 1022.09 1021.66 1021.18 1020.67 1020.15 1019.64 1019.14 1018.66 1018.18 1017.69 1017.16 1016.58 1015.94 1015.24 1014.48 1013.69 1012.87 1012.06 1011.27 1010.52 1009.81 1009.17 1008.58 1008.05 1007.59 1007.17 1006.80
1018.32 1019.15 1019.92 1020.61 1021.20 1021.67 1022.04 1022.32 1022.52 1022.67 1022.76 1022.79 1022.75 1022.64 1022.44 1022.15 1021.77 1021.32 1020.81 1020.27 1019.72 1019.18 1018.66 1018.16 1017.67 1017.17 1016.65 1016.09 1015.48 1014.80 1014.06 1013.26 1012.41 1011.55 1010.68 1009.83 1009.02 1008.26 1007.58 1006.98 1006.47 1006.05 1005.72
1018.18 1018.96 1019.69 1020.34 1020.89 1021.35 1021.73 1022.01 1022.23 1022.38 1022.47 1022.50 1022.44 1022.31 1022.09 1021.77 1021.37 1020.90 1020.38 1019.83 1019.27 1018.72 1018.19 1017.67 1017.17 1016.67 1016.15 1015.58 1014.97 1014.29 1013.53 1012.71 1011.82 1010.89 1009.94 1009.00 1008.08 1007.21 1006.43 1005.75 1005.18 1004.73 1004.39
1018.06 1018.78 1019.45 1020.06 1020.58 1021.02 1021.38 1021.67 1021.89 1022.04 1022.12 1022.13 1022.05 1021.89 1021.65 1021.32 1020.91 1020.45 1019.93 1019.39 1018.85 1018.30 1017.77 1017.26 1016.75 1016.23 1015.69 1015.10 1014.45 1013.74 1012.95 1012.08 1011.14 1010.14 1009.11 1008.06 1007.04 1006.07 1005.18 1004.41 1003.77 1003.27 1002.91
1017.94 1018.61 1019.22 1019.77 1020.26 1020.68 1021.03 1021.31 1021.52 1021.66 1021.72 1021.70 1021.60 1021.42 1021.16 1020.82 1020.42 1019.97 1019.49 1018.98 1018.47 1017.96 1017.45 1016.95 1016.43 1015.89 1015.31 1014.68 1013.99 1013.22 1012.38 1011.45 1010.44 1009.37 1008.26 1007.14 1006.02 1004.96 1003.98 1003.12 1002.39 1001.83 1001.42
1017.81 1018.42 1018.99 1019.49 1019.95 1020.34 1020.68 1020.94 1021.14 1021.25 1021.29 1021.25 1021.12 1020.92 1020.64 1020.31 1019.93 1019.51 1019.08 1018.63 1018.17 1017.71 1017.23 1016.74 1016.22 1015.66 1015.05 1014.38 1013.63 1012.80 1011.89 1010.90 1009.84 1008.71 1007.54 1006.35 1005.17 1004.04 1002.98 1002.04 1001.24 1000.60 1000.13
1017.66 1018.22 1018.74 1019.22 1019.64 1020.02 1020.33 1020.58 1020.76 1020.85 1020.86 1020.79 1020.64 1020.42 1020.14 1019.81 1019.46 1019.09 1018.71 1018.33 1017.93 1017.53 1017.10 1016.63 1016.12 1015.55 1014.90 1014.19 1013.39 1012.51 1011.56 1010.52 1009.42 1008.27 1007.07 1005.85 1004.64 1003.46 1002.36 1001.36 1000.48 999.77 999.21
1017.46 1017.99 1018.49 1018.94 1019.34 1019.70 1020.01 1020.24 1020.39 1020.46 1020.45 1020.35 1020.17 1019.93 1019.65 1019.34 1019.02 1018.70 1018.38 1018.06 1017.73 1017.39 1017.01 1016.57 1016.08 1015.50 1014.85 1014.11 1013.29 1012.38 1011.41 1010.36 1009.26 1008.11 1006.93 1005.72 1004.52 1003.34 1002.22 1001.18 1000.25 999.46 998.83
1017.22 1017.74 1018.22 1018.65 1019.05 1019.40 1019.69 1019.90 1020.04 1020.08 1020.04 1019.91 1019.71 1019.46 1019.18 1018.89 1018.59 1018.31 1018.05 1017.79 1017.52 1017.23 1016.90 1016.51 1016.04 1015.48 1014.83 1014.10 1013.28 1012.39 1011.43 1010.42 1009.36 1008.26 1007.13 1005.98 1004.83 1003.69 1002.58 1001.53 1000.58 999.73 999.02
1016.96 1017.47 1017.94 1018.37 1018.76 1019.09 1019.37 1019.56 1019.67 1019.68 1019.61 1019.45 1019.24 1018.97 1018.69 1018.41 1018.14 1017.89 1017.67 1017.46 1017.25 1017.01 1016.73 1016.37 1015.94 1015.42 1014.81 1014.11 1013.33 1012.49 1011.60 1010.66 1009.68 1008.68 1007.64 1006.59 1005.52 1004.44 1003.38 1002.36 1001.40 1000.52 999.74
1016.71 1017.21 1017.67 1018.10 1018.47 1018.78 1019.03 1019.20 1019.27 1019.25 1019.14 1018.95 1018.71 1018.44 1018.15 1017.87 1017.62 1017.40 1017.22 1017.05 1016.87 1016.68 1016.44 1016.13 1015.75 1015.28 1014.72 1014.08 1013.38 1012.63 1011.83 1011.00 1010.14 1009.25 1008.34 1007.41 1006.45 1005.47 1004.48 1003.51 1002.56 1001.67 1000.85
Thickness
5727 5726 5724 5721 5720 5719 5717 5715 5713 5710 5708 5704 5702 5699 5698 5697 5696 5694 5693 5692 5691 5691 5690 5689 5688 5687 5686 5685 5686 5685 5684 5683 5684 5684 5683 5685 5687 5687 5686 5687 5687 5688 5686
5724 5723 5721 5719 5718 5716 5714 5714 5711 5708 5706 5702 5700 5698 5696 5694 5693 5690 5689 5688 5687 5686 5686 5685 5684 5682 5681 5681 5680 5679 5679 5678 5678 5679 5678 5678 5679 5680 5681 5681 5681 5683 5682
5723 5722 5720 5718 5716 5714 5712 5711 5709 5707 5703 5700 5697 5694 5691 5690 5688 5686 5685 5684 5683 5682 5681 5681 5680 5678 5678 5676 5675 5674 5673 5672 5673 5674 5674 5672 5672 5673 5675 5676 5677 5676 5676
5723 5720 5718 5716 5714 5713 5711 5709 5707 5704 5701 5698 5694 5691 5688 5686 5685 5684 5682 5680 5679 5678 5677 5676 5676 5675 5674 5672 5671 5671 5669 5667 5668 5669 5668 5670 5670 5667 5667 5669 5671 5671 5671
5721 5718 5716 5715 5713 5711 5708 5706 5704 5700 5697 5695 5691 5688 5686 5685 5683 5681 5679 5678 5676 5675 5673 5672 5672 5671 5669 5668 5667 5665 5665 5665 5664 5664 5663 5663 5662 5666 5664 5662 5664 5666 5666
5719 5716 5715 5712 5710 5708 5704 5702 5699 5696 5693 5691 5688 5685 5683 5681 5679 5677 5676 5674 5673 5671 5670 5669 5667 5666 5665 5664 5662 5661 5659 5659 5659 5659 5659 5658 5658 5658 5658 5658 5658 5659 5660
5717 5713 5710 5708 5706 5703 5700 5698 5695 5692 5690 5687 5686 5684 5681 5679 5676 5674 5673 5671 5670 5667 5666 5665 5664 5663 5661 5659 5658 5656 5655 5654 5653 5653 5653 5653 5653 5653 5653 5653 5653 5653 5655
5713 5710 5708 5705 5702 5700 5697 5695 5692 5689 5687 5685 5683 5681 5679 5676 5674 5672 5671 5669 5667 5666 5664 5662 5660 5658 5657 5655 5653 5652 5650 5650 5648 5647 5646 5646 5647 5647 5647 5646 5646 5647 5650
5707 5706 5704 5702 5700 5697 5694 5692 5689 5686 5684 5682 5680 5678 5675 5672 5670 5669 5667 5665 5664 5662 5660 5658 5656 5654 5652 5650 5648 5646 5645 5644 5643 5642 5641 5640 5640 5640 5640 5641 5641 5641 5642
5703 5702 5700 5698 5696 5694 5691 5689 5686 5683 5681 5678 5676 5673 5671 5668 5666 5665 5663 5661 5660 5658 5656 5654 5652 5650 5648 5645 5643 5641 5640 5639 5637 5635 5635 5634 5634 5634 5634 5634 5635 5636 5637
5697 5696 5695 5693 5691 5689 5687 5684 5682 5679 5677 5674 5672 5669 5666 5664 5662 5660 5659 5657 5655 5654 5652 5650 5648 5646 5643 5641 5638 5636 5634 5633 5633 5631 5630 5628 5628 5628 5628 5628 5629 5630 5631
5691 5690 5688 5687 5685 5683 5681 5679 5677 5675 5672 5670 5667 5665 5662 5660 5658 5656 5655 5653 5651 5650 5648 5646 5644 5642 5639 5637 5635 5633 5630 5629 5627 5626 5625 5624 5623 5622 5623 5623 5624 5624 5625
5685 5684 5682 5681 5679 5677 5676 5674 5672 5670 5668 5665 5662 5660 5658 5656 5654 5652 5651 5649 5647 5645 5644 5642 5640 5637 5634 5633 5631 5629 5627 5625 5623 5622 5621 5619 5619 5617 5617 5617 5618 5618 5619
5679 5677 5675 5675 5673 5672 5670 5669 5667 5665 5663 5660 5657 5654 5653 5651 5649 5648 5646 5644 5643 5641 5639 5637 5635 5632 5630 5628 5626 5624 5622 5621 5619 5617 5616 5615 5614 5613 5613 5612 5612 5612 5613
5673 5671 5670 5669 5668 5666 5665 5664 5661 5660 5657 5655 5652 5650 5648 5646 5644 5642 5640 5638 5637 5636 5634 5632 5629 5627 5624 5622 5620 5618 5615 5614 5613 5612 5611 5610 5608 5607 5606 5606 5606 5606 5606
5667 5666 5666 5664 5663 5662 5660 5658 5656 5654 5653 5650 5647 5645 5642 5640 5638 5636 5634 5632 5630 5629 5627 5626 5623 5620 5618 5615 5611 5609 5609 5608 5608 5606 5605 5604 5602 5600 5597 5597 5596 5597 5599
5662 5661 5661 5660 5658 5657 5656 5653 5651 5649 5647 5645 5642 5639 5637 5634 5632 5630 5628 5626 5624 5622 5620 5619 5617 5614 5612 5607 5604 5601 5601 5602 5602 5601 5599 5599 5597 5594 5594 5592 5589 5589 5589
5657 5656 5656 5654 5653 5651 5649 5647 5644 5642 5640 5639 5636 5634 5631 5628 5626 5624 5621 5620 5619 5616 5614 5612 5610 5608 5605 5601 5598 5595 5595 5595 5595 5594 5593 5592 5591 5590 5589 5588 5587 5587 5586
5652 5651 5650 5648 5647 5645 5642 5640 5637 5636 5634 5632 5630 5628 5625 5623 5620 5618 5615 5614 5612 5610 5608 5606 5604 5602 5599 5595 5591 5588 5590 5590 5589 5588 5587 5586 5585 5582 5580 5580 5580 5580 5579
5644 5643 5642 5641 5639 5637 5635 5633 5631 5629 5627 5625 5623 5621 5619 5617 5614 5612 5610 5608 5606 5603 5601 5599 5598 5596 5593 5589 5585 5582 5584 5583 5582 5581 5580 5577 5576 5574 5572 5573 5573 5573 5573
5635 5634 5633 5632 5630 5629 5627 5625 5623 5621 5619 5617 5616 5614 5612 5610 5608 5606 5604 5602 5600 5597 5595 5593 5591 5589 5587 5583 5579 5576 5576 5576 5575 5574 5573 5572 5568 5565 5564 5564 5565 5565 5564
5627 5626 5625 5623 5622 5621 5619 5617 5615 5613 5611 5609 5608 5606 5605 5603 5601 5599 5597 5595 5592 5590 5588 5586 5584 5582 5580 5576 5573 5570 5567 5567 5567 5566 5565 5563 5559 5557 5555 5555 5555 5554 5553
5619 5617 5616 5615 5613 5612 5611 5609 5607 5604 5602 5601 5600 5599 5598 5596 5594 5592 5590 5587 5585 5583 5581 5578 5576 5574 5571 5568 5565 5562 5560 5557 5557 5557 5554 5552 5549 5548 5548 5546 5545 5545 5545
5611 5608 5607 5606 5605 5603 5602 5600 5598 5595 5594 5594 5593 5592 5590 5589 5587 5584 5583 5580 5577 5575 5573 5571 5568 5566 5563 5560 5558 5556 5553 5549 5548 5547 5544 5542 5540 5539 5539 5538 5538 5538 5539
5602 5600 5598 5597 5596 5594 5592 5590 5588 5587 5586 5586 5585 5583 5582 5580 5578 5576 5573 5571 5569 5567 5564 5563 5560 5557 5555 5551 5547 5546 5545 5543 5541 5538 5536 5535 5535 5535 5533 5532 5532 5531 5531
5594 5592 5590 5589 5588 5586 5583 5581 5579 5578 5577 5577 5576 5574 5572 5570 5569 5567 5564 5558 5557 5554 5552 5550 5548 5547 5543 5540 5538 5536 5534 5532 5530 5529 5529 5529 5529 5528 5527 5525 5524 5524 5524